Change the Weather History Date:

Tuesday, September 11, 2012

  Actual Average Record
Temperature  
Mean Temperature 42 °F -  
Max Temperature 48 °F 54 °F 71 °F (1973)
Min Temperature 37 °F 45 °F 35 °F (1993)
Degree Days  
Heating Degree Days 22    
Moisture  
Dew Point 42 °F    
Average Humidity 92    
Maximum Humidity 100    
Minimum Humidity 83    
Precipitation  
Precipitation 0.06 in - - ()
Sea Level Pressure  
Sea Level Pressure 30.04 in    
Wind  
Wind Speed 5 mph (ENE)    
Max Wind Speed 13 mph    
Max Gust Speed 21 mph    
Visibility 9 miles    
Events      
Averages and records for this station are not official NWS values.
T = Trace of Precipitation, MM = Missing Value Source: NWS Daily Summary

Daily Weather History Graph

Daily Weather History Graph

Search for Another Location

Airport or City:

Trip Planner

Search our weather history database for the weather conditions in past years. The results will help you decide how hot, cold, wet, or windy it might be!

Date:

Astronomy

Sep. 11, 2012 Rise Set
Actual Time 6:23 AM AKDT 7:32 PM AKDT
Civil Twilight 5:41 AM AKDT 8:13 PM AKDT
Nautical Twilight 4:49 AM AKDT 9:05 PM AKDT
Astronomical Twilight 3:50 AM AKDT 10:03 PM AKDT
Moon 12:52 AM AKDT (9/11) 5:32 PM AKDT (9/11)
Length of Visible Light 14h 32m
Length of Day
13h 09m
Waning Crescent, 20% of the Moon is Illuminated
Sep 11
Waning Crescent
Sep 15
New
Sep 22
First Quarter
Sep 29
Full
Oct 7
Last Quarter

Hourly Weather History & Observations

Time (AKDT) Temp. Windchill Dew Point Humidity Pressure Visibility Wind Dir Wind Speed Gust Speed Precip Events Conditions
12:54 AM 39.9 °F - 37.9 °F 93% 30.00 in 10.0 mi Calm Calm - N/A   Mostly Cloudy
1:54 AM 37.9 °F - 37.0 °F 97% 30.01 in 6.0 mi Calm Calm - N/A   Clear
2:08 AM 37.4 °F - 37.4 °F 100% 30.00 in 2.5 mi Calm Calm - N/A   Scattered Clouds
2:19 AM 37.4 °F - 37.4 °F 100% 30.00 in 5.0 mi Calm Calm - N/A   Mostly Cloudy
2:41 AM 37.4 °F - 35.6 °F 93% 30.01 in 2.5 mi Calm Calm - N/A   Mostly Cloudy
2:54 AM 37.9 °F - 37.9 °F 100% 30.02 in 9.0 mi Calm Calm - N/A   Mostly Cloudy
3:54 AM 39.0 °F - 39.0 °F 100% 30.02 in 10.0 mi Calm Calm - N/A   Overcast
4:54 AM 39.9 °F 37.8 °F 39.0 °F 97% 30.03 in 10.0 mi West 3.5 mph - N/A   Overcast
5:54 AM 39.9 °F 34.5 °F 39.0 °F 97% 30.04 in 10.0 mi West 8.1 mph - N/A   Overcast
6:54 AM 39.9 °F 33.4 °F 39.0 °F 97% 30.06 in 10.0 mi WNW 10.4 mph - 0.00 in   Overcast
7:23 AM 39.2 °F 31.6 °F 39.2 °F 100% 30.04 in 10.0 mi WNW 12.7 mph - N/A   Overcast
7:41 AM 41.0 °F 34.7 °F 39.2 °F 93% 30.05 in 9.0 mi WNW 10.4 mph - N/A   Overcast
7:54 AM 41.0 °F 35.2 °F 39.9 °F 96% 30.06 in 10.0 mi WNW 9.2 mph - N/A   Overcast
8:54 AM 42.1 °F 36.1 °F 39.9 °F 92% 30.06 in 10.0 mi WNW 10.4 mph - N/A   Overcast
9:54 AM 43.0 °F 38.2 °F 41.0 °F 93% 30.08 in 10.0 mi WNW 8.1 mph - N/A   Overcast
10:54 AM 44.1 °F 40.8 °F 41.0 °F 89% 30.09 in 10.0 mi WNW 5.8 mph - N/A   Overcast
11:54 AM 45.0 °F - 41.0 °F 86% 30.09 in 10.0 mi Calm Calm - N/A   Overcast
12:17 PM 44.6 °F 42.2 °F 42.8 °F 93% 30.08 in 10.0 mi East 4.6 mph - N/A   Overcast
12:43 PM 44.6 °F 41.4 °F 42.8 °F 93% 30.08 in 10.0 mi SE 5.8 mph - N/A   Overcast
12:54 PM 45.0 °F 41.8 °F 43.0 °F 93% 30.10 in 10.0 mi SSE 5.8 mph - N/A   Overcast
1:54 PM 46.0 °F 43.9 °F 43.0 °F 89% 30.10 in 10.0 mi East 4.6 mph - N/A   Overcast
2:54 PM 46.9 °F - 44.1 °F 90% 30.09 in 10.0 mi Variable 3.5 mph - N/A   Overcast
3:54 PM 48.9 °F - 44.1 °F 83% 30.09 in 10.0 mi ENE 8.1 mph - N/A   Overcast
4:49 PM 48.2 °F - 44.6 °F 87% 30.06 in 10.0 mi East 8.1 mph 20.7 mph N/A   Overcast
4:54 PM 48.9 °F - 44.1 °F 83% 30.07 in 10.0 mi ENE 5.8 mph 20.7 mph N/A   Overcast
5:09 PM 48.2 °F - 44.6 °F 87% 30.06 in 10.0 mi East 9.2 mph 17.3 mph N/A   Overcast
5:54 PM 48.9 °F - 44.1 °F 83% 30.06 in 10.0 mi East 8.1 mph - N/A   Overcast
6:24 PM 48.2 °F - 44.6 °F 87% 30.04 in 10.0 mi ENE 9.2 mph - N/A   Overcast
6:54 PM 48.0 °F - 44.1 °F 86% 30.04 in 10.0 mi East 10.4 mph 17.3 mph N/A   Overcast
7:20 PM 48.2 °F - 44.6 °F 87% 30.03 in 10.0 mi East 5.8 mph - N/A   Overcast
7:30 PM 48.2 °F - 44.6 °F 87% 30.03 in 10.0 mi East 8.1 mph - N/A   Overcast
7:54 PM 48.0 °F - 44.1 °F 86% 30.03 in 10.0 mi East 8.1 mph - N/A   Overcast
8:26 PM 48.2 °F - 44.6 °F 87% 30.01 in 10.0 mi East 9.2 mph 17.3 mph N/A   Overcast
8:45 PM 46.4 °F 41.5 °F 44.6 °F 93% 30.01 in 9.0 mi East 10.4 mph 17.3 mph N/A   Overcast
8:54 PM 46.9 °F - 44.1 °F 90% 30.02 in 9.0 mi ENE 9.2 mph 20.7 mph N/A   Overcast
9:13 PM 48.2 °F - 44.6 °F 87% 30.01 in 10.0 mi East 11.5 mph 18.4 mph N/A   Overcast
9:50 PM 46.4 °F 42.9 °F 44.6 °F 93% 30.00 in 9.0 mi ENE 6.9 mph - 0.01 in   Overcast
9:54 PM 46.9 °F - 44.1 °F 90% 30.01 in 9.0 mi East 6.9 mph - 0.01 in   Overcast
10:03 PM 46.4 °F 41.9 °F 44.6 °F 93% 30.00 in 10.0 mi East 9.2 mph - N/A   Overcast
10:13 PM 46.4 °F 42.4 °F 44.6 °F 93% 29.99 in 10.0 mi East 8.1 mph - N/A   Overcast
10:31 PM 46.4 °F 42.9 °F 44.6 °F 93% 29.99 in 10.0 mi East 6.9 mph - 0.01 in   Overcast
10:54 PM 46.9 °F - 44.1 °F 90% 29.99 in 10.0 mi East 9.2 mph - 0.02 in   Overcast
11:54 PM 46.9 °F - 44.1 °F 90% 29.97 in 10.0 mi East 11.5 mph 19.6 mph 0.03 in   Overcast